Nice, France

8:12 PM CEST on May 28, 2017 (GMT +0200)
Nice-Cote d'Azur

Weather History for LFMN - February, 2013

Change the Weather History Date:

Tuesday, February 26, 2013

  Actual Average Record
Temperature  
Mean Temperature 46 °F -  
Max Temperature 53 °F 58 °F 73 °F (1997)
Min Temperature 40 °F 43 °F 35 °F (2001)
Degree Days  
Heating Degree Days 18    
Moisture  
Dew Point 30 °F    
Average Humidity 52    
Maximum Humidity 66    
Minimum Humidity 27    
Precipitation  
Precipitation 0.00 in 0.09 in - ()
Sea Level Pressure  
Sea Level Pressure 30.08 in    
Wind  
Wind Speed 11 mph ()    
Max Wind Speed 24 mph    
Max Gust Speed -    
Visibility 7.0 miles    
Events      
Averages and records for this station are not official NWS values.
T = Trace of Precipitation, MM = Missing Value Source: Averaged Metar Reports

Daily Weather History Graph

Daily Weather History Graph

Search for Another Location

Airport or City:

Trip Planner

Search our weather history database for the weather conditions in past years. The results will help you decide how hot, cold, wet, or windy it might be!

Date:

Astronomy

Feb. 26, 2013 Rise Set
Actual Time 7:12 AM CET 6:16 PM CET
Civil Twilight 6:43 AM CET 6:44 PM CET
Nautical Twilight 6:10 AM CET 7:18 PM CET
Astronomical Twilight 5:37 AM CET 7:51 PM CET
Moon 7:19 PM CET (2/26) 7:04 AM CET (2/26)
Length of Visible Light 12h 01m
Length of Day
11h 03m
Full, 100% of the Moon is Illuminated
Feb 26
Full
Mar 4
Last Quarter
Mar 11
New
Mar 19
First Quarter
Mar 27
Full

Hourly Weather History & Observations

Time (CET) Temp. Windchill Dew Point Humidity Pressure Visibility Wind Dir Wind Speed Gust Speed Precip Events Conditions
12:00 AM 41.0 °F 34.3 °F 30.2 °F 65% 30.01 in 6.2 mi NNW 11.5 mph - N/A   Mostly Cloudy
12:30 AM 41.0 °F 35.2 °F 30.2 °F 65% 30.04 in 6.2 mi NNW 9.2 mph - N/A   Mostly Cloudy
1:00 AM 43 °F - 28 °F 44% 30.04 in 19 mi North 5.8 mph - -   Mostly Cloudy
1:00 AM 42.8 °F 38.6 °F 28.4 °F 57% 30.04 in 6.2 mi ENE 6.9 mph - N/A   Mostly Cloudy
1:30 AM 41.0 °F 34.7 °F 28.4 °F 61% 30.04 in 6.2 mi NNW 10.4 mph - N/A   Mostly Cloudy
2:00 AM 41.0 °F 35.2 °F 28.4 °F 61% 30.04 in 6.2 mi NNW 9.2 mph - N/A   Mostly Cloudy
2:30 AM 41.0 °F 34.7 °F 28.4 °F 61% 30.04 in 6.2 mi NNW 10.4 mph - N/A   Mostly Cloudy
3:00 AM 41.0 °F 34.7 °F 28.4 °F 61% 30.04 in 6.2 mi NNW 10.4 mph - N/A   Mostly Cloudy
3:30 AM 41.0 °F 34.7 °F 26.6 °F 57% 30.04 in 6.2 mi NNW 10.4 mph - N/A   Mostly Cloudy
4:00 AM 41.0 °F 34.7 °F 26.6 °F 57% 30.04 in 6.2 mi NNW 10.4 mph - N/A   Mostly Cloudy
4:30 AM 41.0 °F 34.7 °F 26.6 °F 57% 30.04 in 6.2 mi NNW 10.4 mph - N/A   Mostly Cloudy
5:00 AM 41.0 °F 35.2 °F 26.6 °F 57% 30.04 in 6.2 mi NNW 9.2 mph - N/A   Mostly Cloudy
5:30 AM 41.0 °F 34.3 °F 26.6 °F 57% 30.04 in 6.2 mi NNW 11.5 mph - N/A   Mostly Cloudy
6:00 AM 41.0 °F 35.2 °F 26.6 °F 57% 30.04 in 6.2 mi NNW 9.2 mph - N/A   Mostly Cloudy
6:30 AM 41.0 °F 35.2 °F 26.6 °F 57% 30.04 in 6.2 mi NNW 9.2 mph - N/A   Mostly Cloudy
7:00 AM 41 °F - 26 °F 43% 30.06 in 25 mi NNW 11.5 mph - -   Mostly Cloudy
7:00 AM 41.0 °F 33.9 °F 26.6 °F 57% 30.04 in 6.2 mi NNW 12.7 mph - N/A   Mostly Cloudy
7:30 AM 46.4 °F 40.7 °F 30.2 °F 53% 30.04 in 6.2 mi ENE 12.7 mph - N/A   Mostly Cloudy
8:00 AM 41.0 °F 33.9 °F 26.6 °F 57% 30.06 in 6.2 mi NW 12.7 mph - N/A   Mostly Cloudy
8:30 AM 41.0 °F 34.3 °F 24.8 °F 53% 30.06 in 6.2 mi NNW 11.5 mph - N/A   Mostly Cloudy
9:00 AM 42.8 °F 36.6 °F 24.8 °F 49% 30.06 in 6.2 mi NNW 11.5 mph - N/A   Mostly Cloudy
9:30 AM 42.8 °F 38.6 °F 26.6 °F 53% 30.06 in 6.2 mi NW 6.9 mph - N/A   Mostly Cloudy
10:00 AM 50.0 °F - 32.0 °F 50% 30.09 in 6.2 mi ENE 20.7 mph - N/A   Mostly Cloudy
10:30 AM 48.2 °F - 28.4 °F 46% 30.09 in 6.2 mi NE 12.7 mph - N/A   Mostly Cloudy
11:00 AM 50.0 °F - 33.8 °F 54% 30.09 in 6.2 mi East 24.2 mph - N/A   Mostly Cloudy
11:30 AM 50.0 °F - 28.4 °F 43% 30.09 in 6.2 mi ENE 18.4 mph - N/A   Mostly Cloudy
12:00 PM 51.8 °F - 28.4 °F 41% 30.09 in 6.2 mi NE 16.1 mph - N/A   Partly Cloudy
12:30 PM 53.6 °F - 30.2 °F 41% 30.09 in 6.2 mi NE 16.1 mph - N/A   Scattered Clouds
1:00 PM 53 °F - 29 °F 27% 30.11 in 19 mi NNE 11.5 mph - -   Partly Cloudy
1:00 PM 53.6 °F - 28.4 °F 38% 30.09 in 6.2 mi NNE 12.7 mph - N/A   Scattered Clouds
1:30 PM 51.8 °F - 32.0 °F 47% 30.09 in 6.2 mi East 11.5 mph - N/A   Scattered Clouds
2:00 PM 51.8 °F - 33.8 °F 50% 30.06 in 6.2 mi East 17.3 mph - N/A   Scattered Clouds
2:30 PM 51.8 °F - 32.0 °F 47% 30.06 in 6.2 mi East 21.9 mph - N/A   Scattered Clouds
3:00 PM 51.8 °F - 33.8 °F 50% 30.06 in 6.2 mi East 20.7 mph - N/A   Scattered Clouds
3:30 PM 51.8 °F - 33.8 °F 50% 30.06 in 6.2 mi East 24.2 mph - N/A   Scattered Clouds
4:00 PM 53.6 °F - 33.8 °F 47% 30.06 in 6.2 mi ESE 23.0 mph - N/A   Scattered Clouds
4:30 PM 53.6 °F - 33.8 °F 47% 30.06 in 6.2 mi East 19.6 mph - N/A   Scattered Clouds
5:00 PM 51.8 °F - 33.8 °F 50% 30.06 in 6.2 mi ESE 19.6 mph - N/A   Partly Cloudy
5:30 PM 51.8 °F - 33.8 °F 50% 30.09 in 6.2 mi ESE 18.4 mph - N/A   Partly Cloudy
6:00 PM 51.8 °F - 33.8 °F 50% 30.09 in 6.2 mi ESE 18.4 mph - N/A   Partly Cloudy
6:30 PM 51.8 °F - 35.6 °F 54% 30.09 in 6.2 mi ESE 17.3 mph - N/A   Partly Cloudy
7:00 PM 52 °F - 32 °F 34% 30.14 in 19 mi East 12.7 mph - -   Partly Cloudy
7:00 PM 51.8 °F - 32.0 °F 47% 30.12 in 6.2 mi East 13.8 mph - N/A   Scattered Clouds
7:30 PM 51.8 °F - 33.8 °F 50% 30.12 in 6.2 mi East 12.7 mph - N/A   Scattered Clouds
8:00 PM 51.8 °F - 32.0 °F 47% 30.15 in 6.2 mi ESE 12.7 mph - N/A   Mostly Cloudy
8:30 PM 50.0 °F - 30.2 °F 47% 30.15 in 6.2 mi Variable 5.8 mph - N/A   Mostly Cloudy
9:00 PM 44.6 °F 40.2 °F 32.0 °F 61% 30.15 in 6.2 mi NW 8.1 mph - N/A   Scattered Clouds
9:30 PM 44.6 °F 39.7 °F 32.0 °F 61% 30.15 in 6.2 mi NNW 9.2 mph - N/A   Partly Cloudy
10:00 PM 42.8 °F 37.0 °F 32.0 °F 66% 30.15 in 6.2 mi NNW 10.4 mph - N/A   Partly Cloudy
10:30 PM 42.8 °F 37.5 °F 30.2 °F 61% 30.15 in - NNW 9.2 mph - N/A   Clear
11:00 PM 42.8 °F 37.0 °F 30.2 °F 61% 30.15 in - NNW 10.4 mph - N/A   Clear
11:30 PM 42.8 °F 37.5 °F 30.2 °F 61% 30.15 in - NNW 9.2 mph - N/A   Clear